Location: Armidale
(30.5016°S, 151.6662°E)
Time: 00:35:38
(UTC+10:00)

Hubble Space Telescope - Pass Details

Date: 05 August 2020
Orbit: 536 x 540 km, 28.5° (Epoch: 27 September)

Event Time Altitude Azimuth Distance (km) Brightness Sun altitude
Rises 19:07:48 0° 290° (WNW) 2,675 5.7 -22.9°
Reaches altitude 10° 19:10:06 10° 295° (WNW) 1,786 4.4 -23.4°
Enters shadow 19:13:39 48° 345° (NNW) 703 1.4 -24.2°
